Home > Weather > Tábor > Past weeks

Flag for Czech Republic Past Weather in Tábor, Czech Republic — Yesterday and Last 2 Weeks

Now
74 °F

Partly sunny.


Feels Like: 77 °F
Forecast: 57 / 78 °F
Wind: 5 mph from West

Location: Kocelovice

Current Time: Jun 29, 2016 at 6:35:55 PM

Latest Report: Jun 29, 2016 at 6:00 PM


Visibility: 47 mi

Pressure: 29.90 "Hg

Humidity: 49%

Dew Point: 54 °F

Location of TáborLocation

Past Weather in Tábor — Graph

°F

Tábor Temperature Yesterday

Maximum temperature yesterday: 72 °F (at 5:00 PM)
Minimum temperature yesterday: 53 °F (at 5:00 AM)
Average temperature yesterday: 64 °F

High & Low Weather Summary for the Past Weeks

 TemperatureHumidityPressure
High88 °F (Jun 24, 4:00 PM)99% (Jun 16, 11:00 PM)30.29 "Hg (Jun 16, 11:00 PM)
Low49 °F (Jun 18, 5:00 AM)29% (Jun 24, 4:00 PM)29.44 "Hg (Jun 16, 5:00 PM)
Average63 °F74%29.97 "Hg
* Reported Jun 14 5:00 PM — Jun 29 5:00 PM, Tábor, Weather by CustomWeather, © 2016

Note: Actual official high and low records may vary slightly from our data, if they occured in-between our weather recording intervals... More about our weather records

Advertising

Tábor Weather History for the Previous 24 Hours

Scroll right to see more
 ConditionsComfort  
Time TempWeatherWind HumidityBarometerVisibility
5:00 PM
Wed, Jun 29
75 °FPartly sunny.7 mph51%29.90 "Hg43 mi
4:00 PM76 °FPartly sunny.8 mph47%29.90 "Hg43 mi
3:00 PM75 °FPartly sunny.7 mph50%29.91 "Hg43 mi
2:00 PM72 °FScattered clouds.7 mph58%29.93 "Hg43 mi
1:00 PM72 °FPartly sunny.7 mph54%29.93 "Hg31 mi
12:00 PM72 °FPartly sunny.6 mph60%29.93 "Hg40 mi
11:00 AM71 °FPartly sunny.5 mph61%29.93 "Hg40 mi
10:00 AM69 °FScattered clouds.7 mph60%29.93 "Hg37 mi
9:00 AM68 °FScattered clouds.3 mph69%29.93 "Hg37 mi
8:00 AM62 °FPartly sunny.N/A82%29.95 "Hg34 mi
7:00 AM59 °FCool.2 mph89%29.96 "Hg12 mi
6:00 AM58 °FCool.2 mph90%29.95 "Hg12 mi
5:00 AM58 °FCool.2 mph92%29.96 "Hg12 mi
4:00 AM58 °FCool.2 mph92%29.96 "Hg12 mi
3:00 AM57 °FCool.2 mph94%29.97 "Hg12 mi
2:00 AM59 °FCool.1 mph86%29.98 "Hg12 mi
1:00 AM60 °FCool.3 mph86%29.99 "Hg12 mi
12:00 AM60 °FCool.3 mph82%30.00 "Hg12 mi
11:00 PM
Tue, Jun 28
60 °FCool.2 mph85%30.00 "Hg12 mi
10:00 PM63 °FPassing clouds.2 mph71%29.99 "Hg43 mi
9:00 PM66 °FScattered clouds.1 mph66%29.98 "Hg43 mi
8:00 PM69 °FScattered clouds.1 mph55%29.97 "Hg47 mi
7:00 PM72 °FScattered clouds.N/A48%29.96 "Hg47 mi
6:00 PM72 °FPartly sunny.3 mph53%29.97 "Hg47 mi
Weather by CustomWeather, © 2016

See weather overviewHow to use our weather pages